This is the latest recevied weather packets stored in our database for station/object OK3MS-5. If no packets are shown the sender has not sent any weather packets the latest 10 day(s).
| Time | Temp. | Humidity | Pressure | Rain* | Wind** | Luminosity | Snow |
|---|---|---|---|---|---|---|---|
| 1787648704 | 19.44° C | 57% | 1011.1 hPa | 0 mm | - | 353 W/m² | - |
| 1787648403 | 19.44° C | 58% | 1011.1 hPa | 0 mm | - | 320 W/m² | - |
| 1787648104 | 19.44° C | 59% | 1011.1 hPa | 0 mm | - | 292 W/m² | - |
| 1787647803 | 20° C | 57% | 1011.1 hPa | 0 mm | - | 287 W/m² | - |
| 1787647503 | 19.44° C | 57% | 1011.1 hPa | 0 mm | - | 300 W/m² | - |
| 1787647203 | 19.44° C | 58% | 1011.2 hPa | 0 mm | - | 287 W/m² | - |
| 1787646903 | 19.44° C | 58% | 1011.1 hPa | 0 mm | - | 291 W/m² | - |
| 1787646604 | 19.44° C | 57% | 1011 hPa | 0 mm | - | 240 W/m² | - |
| 1787646304 | 20° C | 56% | 1010.8 hPa | 0 mm | - | 276 W/m² | - |
| 1787646005 | 20° C | 58% | 1010.9 hPa | 0 mm | - | 296 W/m² | - |
| 1787645705 | 19.44° C | 58% | 1010.9 hPa | 0 mm | - | 349 W/m² | - |
| 1787645404 | 19.44° C | 58% | 1010.7 hPa | 0 mm | - | 263 W/m² | - |
| 1787645105 | 19.44° C | 58% | 1010.6 hPa | 0 mm | - | 282 W/m² | - |
| 1787644803 | 19.44° C | 58% | 1010.7 hPa | 0 mm | - | 317 W/m² | - |
| 1787644503 | 18.89° C | 58% | 1010.9 hPa | 0 mm | - | 331 W/m² | - |
| 1787644203 | 19.44° C | 57% | 1010.8 hPa | 0 mm | - | 351 W/m² | - |
| 1787643905 | 18.89° C | 59% | 1010.9 hPa | 0 mm | - | 360 W/m² | - |
| 1787643604 | 18.89° C | 60% | 1010.9 hPa | 0 mm | - | 325 W/m² | - |
| 1787643305 | 18.89° C | 59% | 1010.9 hPa | 0 mm | - | 248 W/m² | - |
| 1787643004 | 18.89° C | 59% | 1010.9 hPa | 0 mm | - | 255 W/m² | - |
| 1787642703 | 18.89° C | 59% | 1010.9 hPa | 0 mm | - | 278 W/m² | - |
| 1787642403 | 18.89° C | 59% | 1010.9 hPa | 0 mm | - | 271 W/m² | - |
| 1787642104 | 18.89° C | 59% | 1011 hPa | 0 mm | - | 236 W/m² | - |
| 1787641803 | 18.89° C | 59% | 1010.9 hPa | 0 mm | - | 197 W/m² | - |
| 1787641505 | 18.89° C | 58% | 1011.1 hPa | 0 mm | - | 214 W/m² | - |
* Rain latest hour (hover to see other rain measurements)
** Current wind speed in m/s (hover to see current wind gust speed)